Weather in Alsheyevo

Russia / Republic of Tatarstan     54°45′12″N   48°16′54″E
temp.,
°C
wind,
m/s
gust,
m/s
humid.,
%
clouds,
%
prec.,
mm/h
press.,
hPa
HPBL,
m
27 january, wed
wed2700:00−3sse5119398 0.0 1023375
03:00−1s6109599 0.0 1022546
06:00−2s61194100 0.0 1022491
09:00−2sse81394100 0.0 1021432
12:00−2s81392100 0.0 1021571
15:00−4sse61391100 0.0 1020495
18:00−4sse61391100 0.0 1020501
21:00−4s71491100 0.0 1019528
28 january, thu
thu2800:00−4s71490100 0.0 1019542
03:00−3s71389100 0.0 1018526
06:00−3s71390100 0.0 1018428
09:00−4sse61191100 0.0 1018379
12:00−5sse61190100 0.0 1018416
15:00−6sse61092100 0.0 1017341
18:00−7sse61193100 0.0 1017284
21:00−9sse61195100 0.0 1017272
29 january, fri
fri2900:00−11sse4796100 0.0 1016153
03:00−10sse4997100 0.1 1015217
06:00−9se4996100 0.1 1013225
09:00−8se5996100 0.1 1012333
12:00−7sse5995100 0.1 1010370
15:00−5se5996100 0.4 1008389
18:00−5sse5996100 0.8 1008336
21:00−6sse489699 0.9 1007196
30 january, sat
sat3000:00−5sse4796100 0.3 1006268
03:00−5sse4896100 0.3 1004195
06:00−6sse5119698 0.0 1003276
09:00−4sse6149293 0.0 1002487
12:00−1sse71493100 0.3 1000854
15:000sw61384100 1.8 10001082
18:00−5sw7158132 0.0 1003533
21:00−8ssw4108916 0.0 1007195
31 january, sun
sun3100:00−8s499183 0.0 1008152
03:00−5sse499492 0.1 1007249
06:00+1s71499100 1.8 1005649
09:00+1s91786100 1.9 1004829
12:00+1s101780100 0.0 1004923
15:00+1s101980100 0.0 1003901
18:00+1s101794100 0.1 1002910
21:00+1s101787100 0.1 1002887